Weather History for KCLM - April, 2014

Change the Weather History Date:

Wednesday, April 16, 2014

  Actual Average Record
Temperature  
Mean Temperature 48 °F -  
Max Temperature 53 °F 54 °F 68 °F (1990)
Min Temperature 45 °F 40 °F 33 °F (2006)
Degree Days  
Heating Degree Days 16    
Moisture  
Dew Point 46 °F    
Average Humidity 91    
Maximum Humidity 100    
Minimum Humidity 80    
Precipitation  
Precipitation 0.14 in - - ()
Sea Level Pressure  
Sea Level Pressure 29.98 in    
Wind  
Wind Speed 1 mph (NNW)    
Max Wind Speed 4 mph    
Max Gust Speed -    
Visibility 8 miles    
Events Rain    
Averages and records for this station are not official NWS values.
T = Trace of Precipitation, MM = Missing Value Source: NWS Daily Summary

Daily Weather History Graph

Daily Weather History Graph

Search for Another Location

Airport or City:

Trip Planner

Search our weather history database for the weather conditions in past years. The results will help you decide how hot, cold, wet, or windy it might be!

Date:

Astronomy

Apr. 16, 2014 Rise Set
Actual Time 6:22 AM PDT 8:06 PM PDT
Civil Twilight 5:49 AM PDT 8:39 PM PDT
Nautical Twilight 5:09 AM PDT 9:19 PM PDT
Astronomical Twilight 4:25 AM PDT 10:03 PM PDT
Moon 10:03 PM PDT (4/16) 7:08 AM PDT (4/16)
Length of Visible Light 14h 49m
Length of Day
13h 43m
Full, 98% of the Moon is Illuminated
Apr 16
Full
Apr 22
Last Quarter
Apr 28
New
May 6
First Quarter
May 14
Full

Hourly Weather History & Observations

Time (PDT) Temp. Windchill Dew Point Humidity Pressure Visibility Wind Dir Wind Speed Gust Speed Precip Events Conditions
12:53 AM 46.9 °F - 45.0 °F 93% 30.06 in 10.0 mi Calm Calm - 0.01 in Rain Light Rain
1:04 AM 46.9 °F - 45.0 °F 93% 30.05 in 10.0 mi Calm Calm - 0.00 in Rain Light Rain
1:53 AM 46.0 °F - 45.0 °F 96% 30.04 in 9.0 mi Calm Calm - 0.00 in Rain Light Rain
2:53 AM 46.0 °F 44.8 °F 44.1 °F 93% 30.04 in 10.0 mi SE 3.5 mph - 0.01 in   Overcast
3:53 AM 45.0 °F - 43.0 °F 93% 30.03 in 9.0 mi Calm Calm - N/A   Overcast
4:53 AM 45.0 °F - 43.0 °F 93% 30.03 in 10.0 mi Calm Calm - N/A   Overcast
5:53 AM 45.0 °F 43.5 °F 43.0 °F 93% 30.03 in 10.0 mi SW 3.5 mph - N/A   Overcast
6:53 AM 46.0 °F 44.8 °F 44.1 °F 93% 30.02 in 10.0 mi SW 3.5 mph - 0.00 in   Overcast
7:53 AM 48.0 °F - 46.0 °F 93% 30.02 in 10.0 mi Calm Calm - 0.01 in Rain Light Rain
8:50 AM 48.2 °F - 46.4 °F 93% 30.01 in 10.0 mi Calm Calm - 0.00 in Rain Light Rain
8:53 AM 48.0 °F - 46.0 °F 93% 30.01 in 10.0 mi Calm Calm - 0.01 in Rain Light Rain
9:53 AM 48.9 °F - 45.0 °F 86% 30.01 in 10.0 mi Calm Calm - 0.00 in   Overcast
10:53 AM 52.0 °F - 46.0 °F 80% 30.01 in 10.0 mi Calm Calm - N/A   Mostly Cloudy
11:53 AM 51.1 °F - 46.0 °F 83% 30.00 in 10.0 mi Calm Calm - N/A   Mostly Cloudy
12:53 PM 51.1 °F - 46.9 °F 86% 30.00 in 10.0 mi Calm Calm - N/A   Mostly Cloudy
1:53 PM 51.1 °F - 45.0 °F 80% 30.00 in 10.0 mi North 3.5 mph - N/A   Overcast
2:31 PM 50.0 °F - 46.0 °F 86% 30.01 in 10.0 mi North 3.5 mph - N/A   Mostly Cloudy
2:53 PM 51.1 °F - 46.9 °F 86% 30.00 in 10.0 mi North 3.5 mph - N/A   Overcast
3:53 PM 51.1 °F - 46.0 °F 83% 29.99 in 10.0 mi Calm Calm - N/A   Overcast
4:53 PM 48.9 °F - 46.0 °F 90% 29.99 in 10.0 mi North 3.5 mph - 0.00 in Rain Light Rain
5:53 PM 51.1 °F - 46.9 °F 86% 29.97 in 10.0 mi Calm Calm - 0.01 in Rain Light Rain
6:53 PM 50.0 °F - 46.9 °F 89% 29.96 in 9.0 mi Calm Calm - 0.03 in Rain Light Rain
7:53 PM 48.9 °F - 46.0 °F 90% 29.95 in 10.0 mi Calm Calm - 0.02 in Rain Light Rain
8:37 PM 48.0 °F - 46.0 °F 93% 29.93 in 2.0 mi Calm Calm - 0.01 in Rain Light Rain
8:53 PM 48.0 °F - 46.0 °F 93% 29.93 in 2.0 mi Calm Calm - 0.01 in Rain Light Rain
9:06 PM 48.0 °F - 46.0 °F 93% 29.93 in 3.0 mi Calm Calm - 0.01 in Rain Light Rain
9:24 PM 48.0 °F - 46.0 °F 93% 29.93 in 8.0 mi Calm Calm - 0.01 in Rain Light Rain
9:53 PM 48.0 °F - 46.0 °F 93% 29.92 in 5.0 mi Calm Calm - 0.02 in Rain Light Rain
10:03 PM 48.0 °F - 46.0 °F 93% 29.91 in 4.0 mi Calm Calm - 0.00 in Rain Light Rain
10:53 PM 48.0 °F - 46.0 °F 93% 29.90 in 5.0 mi Calm Calm - 0.00 in Rain Light Rain
11:26 PM 48.0 °F - 46.0 °F 93% 29.88 in 2.5 mi Calm Calm - 0.01 in   Overcast
11:49 PM 46.4 °F - 46.4 °F 100% 29.88 in 1.2 mi Calm Calm - 0.01 in   Overcast
11:53 PM 46.9 °F - 46.0 °F 97% 29.88 in 1.5 mi Calm Calm - 0.01 in   Overcast
11:58 PM 46.9 °F - 46.0 °F 97% 29.88 in 3.0 mi Calm Calm - N/A   Overcast